This is the latest recevied weather packets stored in our database for station/object F5MAP-5. If no packets are shown the sender has not sent any weather packets the latest 10 day(s).
| Time | Temp. | Humidity | Pressure | Rain* | Wind** | Luminosity | Snow |
|---|---|---|---|---|---|---|---|
| 1787393532 | 22.22° C | 65% | 1019.7 hPa | 0 mm | - | 905 W/m² | - |
| 1787392933 | 21.11° C | 68% | 1019.7 hPa | 0 mm | - | 789 W/m² | - |
| 1787392333 | 21.11° C | 67% | 1019.7 hPa | 0 mm | - | 768 W/m² | - |
| 1787391733 | 20.56° C | 71% | 1019.7 hPa | 0 mm | - | 712 W/m² | - |
| 1787391133 | 20° C | 70% | 1019.6 hPa | 0 mm | - | 679 W/m² | - |
| 1787390532 | 19.44° C | 70% | 1019.7 hPa | 0 mm | - | 638 W/m² | - |
| 1787389932 | 19.44° C | 74% | 1019.7 hPa | 0 mm | - | 162 W/m² | - |
| 1787389332 | 18.89° C | 77% | 1019.6 hPa | 0 mm | - | 476 W/m² | - |
| 1787388732 | 18.89° C | 83% | 1019.6 hPa | 0 mm | - | 664 W/m² | - |
| 1787388132 | 18.33° C | 87% | 1019.4 hPa | 0 mm | - | 330 W/m² | - |
| 1787387532 | 17.78° C | 89% | 1019.3 hPa | 0 mm | - | 555 W/m² | - |
| 1787386932 | 17.22° C | 91% | 1019.3 hPa | 0 mm | - | 490 W/m² | - |
| 1787386332 | 17.22° C | 93% | 1019.2 hPa | 0 mm | - | 487 W/m² | - |
| 1787385732 | 16.67° C | 94% | 1019.1 hPa | 0 mm | - | 476 W/m² | - |
| 1787385132 | 16.67° C | 94% | 1019 hPa | 0 mm | - | 454 W/m² | - |
| 1787384532 | 16.11° C | 95% | 1019 hPa | 0 mm | - | 62 W/m² | - |
| 1787383932 | 15.56° C | 95% | 1018.9 hPa | 0 mm | - | 70 W/m² | - |
| 1787383332 | 15.56° C | 95% | 1018.8 hPa | 0 mm | - | 93 W/m² | - |
| 1787382732 | 15° C | 95% | 1018.7 hPa | 0 mm | - | 63 W/m² | - |
| 1787382132 | 14.44° C | 95% | 1018.8 hPa | 0 mm | - | 63 W/m² | - |
| 1787381532 | 14.44° C | 95% | 1018.6 hPa | 0 mm | - | 69 W/m² | - |
| 1787380932 | 14.44° C | 95% | 1018.5 hPa | 0 mm | - | 54 W/m² | - |
| 1787380333 | 14.44° C | 95% | 1018.5 hPa | 0 mm | - | 72 W/m² | - |
| 1787379732 | 14.44° C | 95% | 1018.4 hPa | 0 mm | - | 58 W/m² | - |
| 1787379132 | 13.89° C | 95% | 1018.3 hPa | 0 mm | - | 62 W/m² | - |
* Rain latest hour (hover to see other rain measurements)
** Current wind speed in m/s (hover to see current wind gust speed)